Roanoke, VA

8:49 PM EDT on October 22, 2019 (GMT -0400)
Roanoke Regional-Woodrum

Weather History for KROA - August, 2019

Change the Weather History Date:

Wednesday, August 14, 2019

  Actual Average Record
Temperature  
Mean Temperature 85 °F 76 °F  
Max Temperature 95 °F 86 °F 100 °F (1995)
Min Temperature 74 °F 66 °F 49 °F (1964)
Degree Days  
Heating Degree Days 0 0  
Month to date heating degree days 0 0  
Since 1 June heating degree days 0 11  
Since 1 July heating degree days 0 0  
Cooling Degree Days 20 11  
Month to date cooling degree days 188 156  
Year to date cooling degree days 1171 879  
Since 1 June cooling degree days 892 763  
Growing Degree Days 34 (Base 50)    
Moisture  
Dew Point 68 °F    
Average Humidity 63    
Maximum Humidity 87    
Minimum Humidity 38    
Precipitation  
Precipitation 0.00 in 0.11 in 5.36 in (1940)
Month to date precipitation 0.29 1.60  
Year to date precipitation 27.86 26.17  
Snow  
Snow 0.00 in - - ()
Month to date snowfall 0.0  
Since 1 June snowfall T  
Since 1 July snowfall T  
Snow Depth 0.00 in    
Sea Level Pressure  
Sea Level Pressure 29.86 in    
Wind  
Wind Speed 6 mph (West)    
Max Wind Speed 20 mph    
Max Gust Speed 28 mph    
Visibility 10 miles    
Events      
T = Trace of Precipitation, MM = Missing Value Source: NWS Daily Summary

Daily Weather History Graph

Daily Weather History Graph

Search for Another Location

Airport or City:

Astronomy

Aug. 14, 2019 Rise Set
Actual Time 6:35 AM EDT 8:13 PM EDT
Civil Twilight 6:07 AM EDT 8:41 PM EDT
Nautical Twilight 5:33 AM EDT 9:14 PM EDT
Astronomical Twilight 4:58 AM EDT 9:50 PM EDT
Moon 8:04 PM EDT (8/14) 5:33 AM EDT (8/14)
Length of Visible Light 14h 33m
Length of Day
13h 38m
Waxing Gibbous, 99% of the Moon is Illuminated
Aug 14
Waxing Gibbous
Aug 15
Full
Aug 23
Last Quarter
Aug 30
New
Sep 5
First Quarter

Hourly Weather History & Observations

Time (EDT) Temp. Heat Index Dew Point Humidity Pressure Visibility Wind Dir Wind Speed Gust Speed Precip Events Conditions
12:54 AM 77.0 °F - 69.1 °F 76% 29.84 in 10.0 mi West 8.1 mph - N/A   Clear
1:54 AM 73.9 °F - 69.1 °F 85% 29.84 in 10.0 mi West 3.5 mph - N/A   Clear
2:54 AM 75.9 °F - 69.1 °F 79% 29.83 in 10.0 mi WSW 5.8 mph - N/A   Clear
3:54 AM 75.0 °F - 69.1 °F 82% 29.83 in 10.0 mi West 10.4 mph - N/A   Clear
4:54 AM 75.9 °F - 69.1 °F 79% 29.84 in 10.0 mi West 11.5 mph - N/A   Clear
5:54 AM 75.9 °F - 69.1 °F 79% 29.86 in 10.0 mi West 5.8 mph - N/A   Mostly Cloudy
6:54 AM 75.0 °F - 69.1 °F 82% 29.88 in 10.0 mi Variable 5.8 mph - N/A   Clear
7:54 AM 77.0 °F - 69.1 °F 76% 29.87 in 10.0 mi Calm Calm - N/A   Scattered Clouds
8:54 AM 80.1 °F 83.2 °F 70.0 °F 71% 29.87 in 10.0 mi West 5.8 mph - N/A   Partly Cloudy
9:54 AM 82.9 °F 86.5 °F 69.1 °F 63% 29.86 in 10.0 mi West 8.1 mph - N/A   Partly Cloudy
10:54 AM 84.9 °F 87.1 °F 66.0 °F 53% 29.88 in 10.0 mi West 10.4 mph - N/A   Partly Cloudy
11:54 AM 87.1 °F 89.9 °F 66.9 °F 51% 29.87 in 10.0 mi NW 11.5 mph - N/A   Partly Cloudy
12:54 PM 90.0 °F 92.4 °F 66.0 °F 45% 29.86 in 10.0 mi WNW 12.7 mph - N/A   Partly Cloudy
1:54 PM 91.0 °F 93.0 °F 64.9 °F 42% 29.86 in 10.0 mi West 8.1 mph 17.3 mph N/A   Partly Cloudy
2:54 PM 91.9 °F 92.5 °F 62.1 °F 37% 29.85 in 10.0 mi West 8.1 mph - N/A   Scattered Clouds
3:54 PM 90.0 °F 91.7 °F 64.9 °F 43% 29.85 in 10.0 mi ENE 9.2 mph 17.3 mph N/A   Mostly Cloudy
4:54 PM 84.0 °F 88.4 °F 70.0 °F 63% 29.85 in 10.0 mi SSE 9.2 mph - N/A   Mostly Cloudy
5:54 PM 86.0 °F 89.4 °F 68.0 °F 55% 29.83 in 10.0 mi SSE 6.9 mph - N/A   Scattered Clouds
6:54 PM 86.0 °F 90.1 °F 69.1 °F 57% 29.84 in 10.0 mi SE 8.1 mph - N/A   Scattered Clouds
7:54 PM 86.0 °F 88.8 °F 66.9 °F 53% 29.85 in 10.0 mi Calm Calm - N/A   Scattered Clouds
8:54 PM 84.0 °F 87.0 °F 68.0 °F 58% 29.88 in 10.0 mi Calm Calm - N/A   Partly Cloudy
9:54 PM 82.0 °F 84.5 °F 66.9 °F 60% 29.90 in 10.0 mi NE 5.8 mph - N/A   Scattered Clouds
10:54 PM 81.0 °F 83.3 °F 66.9 °F 62% 29.91 in 10.0 mi NE 4.6 mph - N/A   Partly Cloudy
11:54 PM 78.1 °F - 68.0 °F 71% 29.93 in 10.0 mi WSW 3.5 mph - N/A   Mostly Cloudy